Weather in Novopolyanye

Russia / Lipetsk Oblast     53°10′40″N   39°47′57″E
temp.,
°C
wind,
m/s
gust,
m/s
humid.,
%
clouds,
%
prec.,
mm/h
press.,
hPa
HPBL,
m
22 october, fri
fri2200:00+12sw91766100 0.0 1003753
03:00+11sw91770100 0.0 1002655
06:00+10sw91774100 0.0 1001617
09:00+10sw81675100 0.0 1002636
12:00+14wsw91464100 0.0 10031181
15:00+14wsw915595 0.0 10041689
18:00+12wsw7146318 0.0 1006762
21:00+10wsw714660 0.1 1008829
23 october, sat
sat2300:00+9wsw613704 0.0 1009494
03:00+7sw512723 0.0 1009428
06:00+6sw513684 0.0 1009409
09:00+7sw613645 0.0 1010629
12:00+11sw8134695 0.0 10091530
15:00+12wsw712465 0.0 10091782
18:00+9wsw7115980 0.1 10101085
21:00+7w61072100 0.4 1011760
24 october, sun
sun2400:00+5w61077100 0.0 1012826
03:00+4wsw511815 0.0 1013459
06:00+3wsw4118130 0.0 1013319
09:00+6wsw6117393 0.0 1013962
12:00+7w8116887 0.1 10141262
15:00+7wnw6864100 0.3 10141270
18:00+3wnw4895100 0.5 1015715
21:00+2nw61091100 1.3 1017824
25 october, mon
mon2500:00+1nnw7118994 0.3 1018820
03:000nnw7128288 0.3 1021761
06:000nnw71279100 0.0 1023843
09:00+1nnw7972100 0.0 1026895
12:00+2n68555 0.0 1028934
15:00+4n574377 0.0 10291023
18:00+2nnw365998 0.0 1031151
21:00+1nw236375 0.0 103258
26 october, tue
tue2600:000wsw33675 0.0 103344
03:00−1wsw37695 0.0 1033164
06:00−1wsw410675 0.0 1032241
09:00+1wsw5115863 0.0 1032367
12:00+5wsw694496 0.0 1031628
15:00+5sw61044100 0.0 1029653
18:00+3sw51251100 0.0 1029360
21:00+3sw6145093 0.0 1028396